{"data":{"norad_id":49413,"intl_designator":"2021-104F","name":"STARLINK-3157","alt_names":[],"object_type":"PAYLOAD","status":"ACTIVE","operator":null,"country":"US","launch_date":"2021-11-13","launch_site_code":"AFETR","launch_vehicle":null,"mission":null,"orbit_class":"UNKNOWN","rcs_meters":null,"size_class":null,"mass_kg":null,"dimensions":null,"purposes":["comms"],"wikipedia_slug":null,"has_3d_model":false,"image_url":null,"decayed_at":null,"tle_current":{"epoch":"2026-05-24T22:51:31.331808Z","epoch_age_seconds":89528,"freshness":"FRESH","line1":"1 49413U 21104F   26144.95244597  .00000161  00000+0  28182-4 0  9993","line2":"2 49413  53.2139 236.7743 0001259  84.2166 275.8969 15.08836291250288","mean_motion":15.08836291,"eccentricity":0.0001259,"inclination_deg":53.2139,"raan_deg":236.7743,"arg_perigee_deg":84.2166,"mean_anomaly_deg":275.8969,"bstar":2.8182e-5,"rev_number":25028,"period_min":95.437789281011,"perigee_km":538.88376334823,"apogee_km":540.62568848481,"semimajor_km":6917.8917259165,"source":"CELESTRAK","updated_at":"2026-05-25T13:38:16.795133Z"}}}